Station AMRL1 - 8764227 - LAWMA, Amerada Pass, LA Image indicating link to RSS feed of recent meteorological observations for station AMRL1


Conditions at AMRL1 as of
(1:54 am CDT)
0654 GMT on 05/24/2024:
     

Click on the graph icon in the table below to see a time series plot of the last five days of that observation.

5-day plot - Wind Direction Wind Direction (WDIR): SE ( 140 deg true )
5-day plot - Wind Speed Wind Speed (WSPD): 6.0 kts
5-day plot - Wind Gust Wind Gust (GST): 8.9 kts
5-day plot - Atmospheric Pressure Atmospheric Pressure (PRES):29.88 in
5-day plot - Water Temperature Water Temperature (WTMP): 78.3 °F
5-day plot - Wind Speed at 10 Meters Wind Speed at 10 meters (WSPD10M): 5.8 kts
5-day plot - Wind Speed at 20 Meters Wind Speed at 20 meters (WSPD20M): 5.8 kts
5-day plot -  Wind Speed, Wind Gust and Atmospheric Pressure Combined plot of Wind Speed, Gust, and Air Pressure
NOS Water Level Observation Network Water Level
Previous observations
TIME
(CDT)
5-day plot - Wind Direction
WDIR
 
5-day plot - Wind Speed
WSPD
kts
5-day plot - Wind Gust
GST
kts
5-day plot - Wave Height
WVHT
ft
5-day plot - Dominant Wave Period
DPD
sec
5-day plot - Average Wave Period
APD
sec
5-day plot - Mean Wave Direction
MWD
 
5-day plot - Atmospheric Pressure
PRES
in
5-day plot - Pressure Tendency
PTDY
in
5-day plot - Air Temperature
ATMP
°F
5-day plot - Water Temperature
WTMP
°F
5-day plot - Dew Point
DEWP
°F
5-day plot - Salinity
SAL
psu
5-day plot - Visibility
VIS
nmi
5-day plot - Tide (above MLLW)
TIDE
ft
2024-05-24 01:48 am SE 6.0 8.9----29.88-- 78.3----
2024-05-24 01:42 am SE 6.0 11.1----29.89-- 78.3----
2024-05-24 01:36 am SE 5.1 8.9----29.89-- 78.3----
2024-05-24 01:30 am SE 5.1 11.1----29.89-- 78.3----
2024-05-24 01:24 am SE 5.1 8.9----29.89-- 78.3----
2024-05-24 01:18 am SE 4.1 8.0----29.90-- 78.3----
2024-05-24 01:12 am SE 5.1 9.9----29.89-- 78.3----
2024-05-24 01:06 am SE 6.0 9.9----29.90-- 78.3----
2024-05-24 01:00 am SE 5.1 8.0----29.91-0.03- 78.3----
2024-05-24 12:54 am SE 5.1 8.9----29.91-- 78.3----
2024-05-24 12:48 am SE 5.1 9.9----29.91-- 78.3----
2024-05-24 12:42 am SE 5.1 8.9----29.91-- 78.4----
2024-05-24 12:36 am SE 4.1 7.0----29.91-- 78.4----
2024-05-24 12:30 amESE 4.1 7.0----29.91-- 78.4----
2024-05-24 12:24 amESE 4.1 7.0----29.91-- 78.4----
2024-05-24 12:18 am SE 2.9 6.0----29.92-- 78.4----
2024-05-24 12:12 am SE 2.9 7.0----29.93-- 78.4----
2024-05-24 12:06 am SE 2.9 6.0----29.93-- 78.4----
2024-05-24 12:00 am SE 4.1 8.0----29.93+0.01- 78.6----
2024-05-23 11:54 pm SE 4.1 7.0----29.93-- 78.6----
2024-05-23 11:48 pm SE 2.9 6.0----29.93-- 78.6----
2024-05-23 11:42 pm SE 1.9 5.1----29.93-- 78.6----
2024-05-23 11:36 pm SE 2.9 4.1----29.94-- 78.6----
2024-05-23 11:30 pm SE 2.9 6.0----29.94-- 78.6----
2024-05-23 11:24 pm SE 2.9 5.1----29.94-- 78.6----
2024-05-23 11:18 pm SE 4.1 7.0----29.94-- 78.6----
2024-05-23 11:12 pm SE 2.9 7.0----29.94-- 78.8----
2024-05-23 11:06 pm SE 4.1 7.0----29.94-- 78.8----
2024-05-23 11:00 pm SE 5.1 8.0----29.94+0.04- 78.8----
2024-05-23 10:54 pm SE 4.1 8.0----29.94-- 78.8----
2024-05-23 10:48 pm SE 5.1 8.0----29.94-- 78.8----
2024-05-23 10:42 pm SE 5.1 8.0----29.94-- 78.8----
2024-05-23 10:36 pm SE 5.1 8.0----29.94-- 78.8----
2024-05-23 10:30 pm SE 4.1 8.0----29.94-- 78.8----
2024-05-23 10:24 pm SE 4.1 8.9----29.94-- 78.8----
2024-05-23 10:18 pm SE 4.1 8.0----29.94-- 79.0----
2024-05-23 10:12 pm SE 5.1 8.9----29.94-- 79.0----
2024-05-23 10:06 pm SE 4.1 7.0----29.94-- 79.0----
2024-05-23 10:00 pm SE 5.1 8.0----29.94+0.04- 79.0----
2024-05-23 09:54 pm SE 4.1 9.9----29.94-- 79.0----
2024-05-23 09:48 pm SE 2.9 7.0----29.93-- 79.0----
2024-05-23 09:42 pm SE 5.1 8.9----29.93-- 79.0----
2024-05-23 09:36 pm SE 5.1 8.0----29.93-- 79.2----
2024-05-23 09:30 pm SE 4.1 9.9----29.93-- 79.2----
2024-05-23 09:24 pm SE 4.1 8.9----29.92-- 79.2----
2024-05-23 09:18 pm SE 5.1 9.9----29.92-- 79.2----
2024-05-23 09:12 pm SE 5.1 8.0----29.92-- 79.3----
2024-05-23 09:06 pm SE 6.0 9.9----29.92-- 79.3----
2024-05-23 09:00 pm SE 5.1 9.9----29.91+0.01- 79.3----
2024-05-23 08:54 pm SE 6.0 8.9----29.91-- 79.3----
2024-05-23 08:48 pm SE 6.0 8.9----29.92-- 79.5----
2024-05-23 08:42 pm SE 5.1 8.9----29.91-- 79.5----
2024-05-23 08:36 pm SE 6.0 9.9----29.91-- 79.5----
2024-05-23 08:30 pm SE 6.0 9.9----29.91-- 79.7----
2024-05-23 08:24 pm SE 4.1 8.9----29.91-- 79.7----
2024-05-23 08:18 pm SE 5.1 9.9----29.91-- 79.7----
2024-05-23 08:12 pm SE 5.1 8.0----29.90-- 79.9----
2024-05-23 08:06 pm SE 6.0 11.1----29.90-- 79.9----
2024-05-23 08:00 pm SE 6.0 9.9----29.90-0.01- 80.1----
2024-05-23 07:54 pm SE 5.1 9.9----29.90-- 80.1----
2024-05-23 07:48 pm SE 5.1 8.9----29.90-- 80.2----
2024-05-23 07:42 pm SE 5.1 8.0----29.90-- 80.2----
2024-05-23 07:36 pm SE 5.1 11.1----29.90-- 80.4----
2024-05-23 07:30 pm SE 6.0 8.9----29.90-- 80.4----
2024-05-23 07:24 pm SE 4.1 7.0----29.90-- 80.6----
2024-05-23 07:18 pm SE 2.9 7.0----29.90-- 80.6----
2024-05-23 07:12 pm SE 6.0 9.9----29.90-- 80.6----
2024-05-23 07:06 pm SE 4.1 7.0----29.90-- 80.6----
2024-05-23 07:00 pm SE 4.1 8.0----29.90-0.04- 80.8----
2024-05-23 06:54 pm SE 5.1 9.9----29.90-- 80.8----
2024-05-23 06:48 pm SE 4.1 8.0----29.90-- 81.0----
2024-05-23 06:42 pm SE 5.1 8.9----29.90-- 81.0----
2024-05-23 06:36 pm SE 4.1 6.0----29.90-- 81.0----
2024-05-23 06:30 pm SE 4.1 8.0----29.90-- 81.1----
2024-05-23 06:24 pm SE 5.1 8.0----29.90-- 81.1----
2024-05-23 06:18 pm SE 2.9 8.9----29.90-- 81.1----
2024-05-23 06:12 pm SE 4.1 9.9----29.90-- 81.1----
2024-05-23 06:06 pm SE 5.1 9.9----29.90-- 81.1----
2024-05-23 06:00 pm SE 5.1 8.9----29.90-0.05- 81.1----
2024-05-23 05:54 pmESE 2.9 6.0----29.90-- 81.1----
2024-05-23 05:48 pm SE 4.1 8.9----29.90-- 81.1----
2024-05-23 05:42 pmESE 2.9 8.9----29.90-- 81.1----
2024-05-23 05:36 pmESE 6.0 8.9----29.90-- 81.1----
2024-05-23 05:30 pm SE 5.1 8.0----29.91-- 81.0----
2024-05-23 05:24 pm SE 5.1 8.9----29.91-- 81.1----
2024-05-23 05:18 pm SE 5.1 11.1----29.91-- 81.1----
2024-05-23 05:12 pm SE 5.1 11.1----29.91-- 81.0----
2024-05-23 05:06 pm SE 4.1 11.1----29.91-- 81.0----
2024-05-23 05:00 pm SE 6.0 9.9----29.91-0.05- 81.0----
2024-05-23 04:54 pm SE 7.0 11.1----29.92-- 80.8----
2024-05-23 04:48 pmSSE 2.9 12.0----29.92-- 80.8----
2024-05-23 04:42 pmSSE 5.1 9.9----29.92-- 80.8----
2024-05-23 04:36 pmSSE 2.9 9.9----29.93-- 80.8----
2024-05-23 04:30 pm S 2.9 8.0----29.93-- 80.6----
2024-05-23 04:24 pmSSE 4.1 8.0----29.93-- 80.6----
2024-05-23 04:18 pmSSE 2.9 7.0----29.93-- 80.6----
2024-05-23 04:12 pmSSE 2.9 8.0----29.94-- 80.6----
2024-05-23 04:06 pmSSE 4.1 8.9----29.94-- 80.4----
2024-05-23 04:00 pmSSE 6.0 9.9----29.94-0.02- 80.6----
2024-05-23 03:54 pmSSE 2.9 8.9----29.94-- 80.4----
2024-05-23 03:48 pm SE 4.1 9.9----29.94-- 80.2----
2024-05-23 03:42 pmSSE 4.1 8.9----29.94-- 80.2----
2024-05-23 03:36 pmSSE 4.1 9.9----29.94-- 80.2----
2024-05-23 03:30 pmSSE 4.1 8.0----29.95-- 80.1----
2024-05-23 03:24 pmSSE 4.1 7.0----29.95-- 80.1----
2024-05-23 03:18 pm S 2.9 9.9----29.95-- 80.1----
2024-05-23 03:12 pm SE 5.1 8.9----29.95-- 80.1----
2024-05-23 03:06 pmSSE 5.1 8.0----29.95-- 80.1----
2024-05-23 03:00 pmSSE 5.1 8.0----29.95+0.00- 79.9----
2024-05-23 02:54 pm S 2.9 8.9----29.96-- 79.7----
2024-05-23 02:48 pmSSE 6.0 11.1----29.96-- 79.7----
2024-05-23 02:42 pm S 2.9 8.9----29.95-- 79.7----
2024-05-23 02:36 pmSSE 6.0 8.9----29.95-- 79.7----
2024-05-23 02:30 pmSSE 4.1 8.9----29.96-- 79.5----
2024-05-23 02:24 pm SE 7.0 12.0----29.95-- 79.5----
2024-05-23 02:18 pm S 2.9 6.0----29.96-- 79.5----
2024-05-23 02:12 pmSSE 2.9 8.9----29.96-- 79.3----
2024-05-23 02:06 pmSSE 6.0 11.1----29.96-- 79.3----
2024-05-23 02:00 pm S 4.1 8.9----29.96+0.02- 79.3----
2024-05-23 01:54 pmSSE 5.1 8.9----29.96-- 79.3----
2024-05-23 01:48 pmSSE 4.1 9.9----29.96-- 79.2----
2024-05-23 01:42 pmSSE 2.9 12.0----29.96-- 79.2----
2024-05-23 01:36 pmSSE 4.1 8.0----29.96-- 79.2----
2024-05-23 01:30 pmSSE 5.1 11.1----29.95-- 79.0----
2024-05-23 01:24 pmSSE 7.0 12.0----29.95-- 79.0----
2024-05-23 01:18 pmSSE 2.9 9.9----29.96-- 79.0----
2024-05-23 01:12 pmSSE 4.1 12.0----29.96-- 79.0----
2024-05-23 01:06 pmSSE 8.0 12.0----29.96-- 78.8----
2024-05-23 01:00 pmSSE 5.1 12.0----29.96+0.03- 78.8----
2024-05-23 12:54 pm S 2.9 12.0----29.96-- 78.8----
2024-05-23 12:48 pmSSE 5.1 14.0----29.96-- 78.8----
2024-05-23 12:42 pmSSE 5.1 11.1----29.95-- 78.8----
2024-05-23 12:36 pm SE 7.0 14.0----29.95-- 78.6----
2024-05-23 12:30 pmSSE 5.1 8.9----29.96-- 78.6----
2024-05-23 12:24 pmSSE 5.1 11.1----29.95-- 78.6----
2024-05-23 12:18 pm S 5.1 12.0----29.96-- 78.6----
2024-05-23 12:12 pm S 5.1 9.9----29.96-- 78.4----
2024-05-23 12:06 pm S 4.1 12.0----29.96-- 78.4----
2024-05-23 12:00 pm S 5.1 8.9----29.95+0.02- 78.4----
2024-05-23 11:54 amSSE 4.1 13.0----29.95-- 78.4----
2024-05-23 11:48 am S 6.0 11.1----29.95-- 78.4----
2024-05-23 11:42 amSSE 5.1 14.0----29.95-- 78.3----
2024-05-23 11:36 amSSE 6.0 12.0----29.95-- 78.3----
2024-05-23 11:30 amSSE 7.0 15.0----29.95-- 78.3----
2024-05-23 11:24 amSSE 5.1 14.0----29.94-- 78.1----
2024-05-23 11:18 amSSE 7.0 12.0----29.94-- 77.9----
2024-05-23 11:12 amSSE 6.0 15.0----29.94-- 77.9----
2024-05-23 11:06 amSSE 6.0 12.0----29.94-- 77.9----
2024-05-23 11:00 amSSE 7.0 14.0----29.94+0.00- 77.7----
2024-05-23 10:54 amSSE 8.0 15.0----29.94-- 77.7----
2024-05-23 10:48 amSSE 7.0 14.0----29.93-- 77.7----
2024-05-23 10:42 amSSE 7.0 13.0----29.93-- 77.7----
2024-05-23 10:36 amSSE 7.0 14.0----29.93-- 77.7----
2024-05-23 10:30 amSSE 5.1 15.9----29.93-- 77.7----
2024-05-23 10:24 amSSE 6.0 9.9----29.93-- 77.7----
2024-05-23 10:18 amSSE 6.0 12.0----29.93-- 77.7----
2024-05-23 10:12 amSSE 8.9 15.0----29.93-- 77.5----
2024-05-23 10:06 amSSE 6.0 12.0----29.93-- 77.5----
2024-05-23 10:00 amSSE 5.1 13.0----29.93+0.00- 77.5----
2024-05-23 09:54 amSSE 5.1 19.0----29.92-- 77.5----
2024-05-23 09:48 amSSE 6.0 15.0----29.92-- 77.5----
2024-05-23 09:42 amSSE 7.0 18.1----29.92-- 77.5----
2024-05-23 09:36 am SE 11.1 15.9----29.92-- 77.4----
2024-05-23 09:30 am SE 6.0 15.9----29.92-- 77.4----
2024-05-23 09:24 amSSE 7.0 12.0----29.92-- 77.4----
2024-05-23 09:18 am SE 8.0 14.0----29.92-- 77.4----
2024-05-23 09:12 am SE 6.0 13.0----29.93-- 77.4----
2024-05-23 09:06 am SE 7.0 12.0----29.93-- 77.4----
2024-05-23 09:00 amSSE 7.0 14.0----29.93-0.02- 77.4----
2024-05-23 08:54 amSSE 6.0 9.9----29.93-- 77.4----
2024-05-23 08:48 amSSE 5.1 12.0----29.93-- 77.4----
2024-05-23 08:42 am SE 7.0 12.0----29.92-- 77.4----
2024-05-23 08:36 am SE 6.0 12.0----29.92-- 77.4----
2024-05-23 08:30 am SE 6.0 11.1----29.92-- 77.4----
2024-05-23 08:24 am SE 6.0 12.0----29.93-- 77.4----
2024-05-23 08:18 am SE 8.0 18.1----29.93-- 77.4----
2024-05-23 08:12 am SE 6.0 9.9----29.94-- 77.4----
2024-05-23 08:06 am SE 5.1 8.9----29.94-- 77.4----
2024-05-23 08:00 am SE 5.1 9.9----29.94+0.00- 77.4----
2024-05-23 07:54 am SE 4.1 8.9----29.94-- 77.4----
2024-05-23 07:48 am SE 5.1 8.0----29.94-- 77.4----
2024-05-23 07:42 am SE 6.0 11.1----29.94-- 77.4----
2024-05-23 07:36 amSSE 5.1 9.9----29.94-- 77.4----
2024-05-23 07:30 amSSE 4.1 9.9----29.93-- 77.4----
2024-05-23 07:24 am SE 8.0 15.0----29.92-- 77.4----
2024-05-23 07:18 am SE 7.0 13.0----29.92-- 77.4----
2024-05-23 07:12 am SE 8.0 12.0----29.92-- 77.4----
2024-05-23 07:06 am SE 6.0 12.0----29.92-- 77.4----
2024-05-23 07:00 amSSE 6.0 12.0----29.93+0.01- 77.4----
2024-05-23 06:54 am SE 8.0 13.0----29.93-- 77.4----
2024-05-23 06:48 am SE 6.0 9.9----29.93-- 77.4----
2024-05-23 06:42 am SE 5.1 11.1----29.94-- 77.4----
2024-05-23 06:36 am SE 6.0 12.0----29.93-- 77.4----
2024-05-23 06:30 amSSE 5.1 15.0----29.93-- 77.4----
2024-05-23 06:24 amSSE 6.0 14.0----29.93-- 77.4----
2024-05-23 06:18 amSSE 6.0 11.1----29.93-- 77.4----
2024-05-23 06:12 am SE 5.1 8.0----29.94-- 77.4----
2024-05-23 06:06 amSSE 2.9 7.0----29.95-- 77.4----
2024-05-23 06:00 am SE 4.1 6.0----29.95+0.01- 77.4----
2024-05-23 05:54 amSSE 4.1 7.0----29.95-- 77.4----
2024-05-23 05:48 am SE 5.1 8.0----29.94-- 77.4----
2024-05-23 05:42 am SE 5.1 8.9----29.94-- 77.4----
2024-05-23 05:36 am SE 4.1 6.0----29.94-- 77.4----
2024-05-23 05:30 am SE 4.1 8.0----29.94-- 77.4----
2024-05-23 05:24 am SE 4.1 7.0----29.93-- 77.4----
2024-05-23 05:18 am SE 6.0 8.9----29.93-- 77.4----
2024-05-23 05:12 am SE 4.1 7.0----29.93-- 77.4----
2024-05-23 05:06 amESE 2.9 6.0----29.93-- 77.4----
2024-05-23 05:00 am SE 2.9 8.0----29.93-0.03- 77.4----
2024-05-23 04:54 am SE 2.9 7.0----29.93-- 77.4----
2024-05-23 04:48 am SE 4.1 8.0----29.93-- 77.4----
2024-05-23 04:42 am SE 4.1 8.0----29.94-- 77.4----
2024-05-23 04:36 am SE 5.1 8.9----29.94-- 77.4----
2024-05-23 04:30 am SE 4.1 8.0----29.94-- 77.4----
2024-05-23 04:24 am SE 5.1 9.9----29.93-- 77.4----
2024-05-23 04:18 am SE 4.1 9.9----29.93-- 77.4----
2024-05-23 04:12 am SE 5.1 8.9----29.93-- 77.4----
2024-05-23 04:06 am SE 4.1 8.0----29.93-- 77.4----
2024-05-23 04:00 amESE 5.1 8.0----29.92-0.08- 77.4----
2024-05-23 03:54 amESE 4.1 12.0----29.92-- 77.4----
2024-05-23 03:48 am SE 6.0 15.0----29.92-- 77.4----
2024-05-23 03:42 am SE 8.9 15.9----29.91-- 77.4----
2024-05-23 03:36 am SE 7.0 12.0----29.92-- 77.4----
2024-05-23 03:30 am SE 6.0 13.0----29.93-- 77.4----
2024-05-23 03:24 am SE 6.0 9.9----29.93-- 77.4----
2024-05-23 03:18 am SE 6.0 11.1----29.93-- 77.4----
2024-05-23 03:12 am SE 5.1 9.9----29.93-- 77.4----
2024-05-23 03:06 am SE 5.1 9.9----29.93-- 77.4----
2024-05-23 03:00 am SE 5.1 9.9----29.94-0.08- 77.4----
2024-05-23 02:54 am SE 5.1 8.9----29.95-- 77.4----
2024-05-23 02:48 am SE 5.1 9.9----29.95-- 77.4----
2024-05-23 02:42 am SE 5.1 8.9----29.95-- 77.4----
2024-05-23 02:36 am SE 4.1 7.0----29.96-- 77.4----
2024-05-23 02:30 am SE 2.9 7.0----29.97-- 77.4----
2024-05-23 02:24 amESE 4.1 7.0----29.97-- 77.4----
2024-05-23 02:18 amESE 2.9 6.0----29.96-- 77.4----
2024-05-23 02:12 amESE 4.1 7.0----29.96-- 77.4----
2024-05-23 02:06 amESE 2.9 6.0----29.97-- 77.4----
2024-05-23 02:00 am E 2.9 6.0----29.97-0.03- 77.4----
2024-05-23 01:54 amESE 2.9 6.0----29.97-- 77.5----